| time (UTC) | temp F | wind direction | speed MPH | gust MPH | rain 1hr in | rain 24hr in | rain mn in | humidity % | barometer mb |
| 20260506050704 | 0 | 0.0 | 1.0 | 0.00 | 0.00 | 0.00 | 1000.2 | ||
| 20260506044606 | 0 | 2.0 | 3.0 | 0.00 | 0.00 | 0.00 | 1000.2 | ||
| 20260506043538 | 0 | 0.0 | 2.0 | 0.00 | 0.00 | 0.00 | 1000.2 | ||
| 20260506042510 | 0 | 0.0 | 1.0 | 0.00 | 0.00 | 0.00 | 1000.5 | ||
| 20260506041442 | 0 | 1.0 | 2.0 | 0.00 | 0.00 | 0.00 | 1000.6 | ||
| 20260506040414 | 0 | 0.0 | 1.0 | 0.00 | 0.00 | 0.00 | 1000.9 | ||
| 20260506035345 | 0 | 0.0 | 2.0 | 0.00 | 0.00 | 0.00 | 1000.5 | ||
| 20260506034314 | 0 | 0.0 | 0.0 | 0.00 | 0.00 | 0.00 | 1000.4 | ||
| 20260506032930 | 0 | 0.0 | 0.0 | 0.00 | 0.00 | 0.00 | 1000.3 | ||
| 20260506030212 | 0 | 0.0 | 0.0 | 0.00 | 0.00 | 0.00 | 1000.5 | ||
| 20260506025143 | 0 | 0.0 | 0.0 | 0.00 | 0.00 | 0.00 | 1000.6 | ||
| 20260506022523 | 0 | 0.0 | 0.0 | 0.00 | 0.00 | 0.00 | 1001.0 | ||
| 20260506021455 | 0 | 0.0 | 0.0 | 0.00 | 0.00 | 0.00 | 1001.1 | ||
| 20260506020324 | 0 | 0.0 | 0.0 | 0.00 | 0.00 | 0.00 | 1001.2 | ||
| 20260506015254 | 0 | 0.0 | 1.0 | 0.00 | 0.00 | 0.00 | 1001.2 | ||
| 20260506014226 | 0 | 0.0 | 0.0 | 0.00 | 0.00 | 0.00 | 1001.2 | ||
| 20260506012741 | 0 | 0.0 | 0.0 | 0.00 | 0.00 | 0.00 | 1001.4 | ||
| 20260506011609 | 0 | 0.0 | 1.0 | 0.00 | 0.00 | 0.00 | 1001.4 | ||
| 20260506010539 | 0 | 0.0 | 3.0 | 0.00 | 0.00 | 0.00 | 1001.5 | ||
| 20260506005511 | 0 | 0.0 | 4.0 | 0.00 | 0.00 | 0.00 | 1001.4 | ||
| 20260506004441 | 0 | 1.0 | 3.0 | 0.00 | 0.00 | 0.00 | 1001.7 | ||
| 20260506003412 | 0 | 2.0 | 2.0 | 0.00 | 0.00 | 0.00 | 1002.0 | ||
| 20260506002336 | 0 | 0.0 | 1.0 | 0.00 | 0.00 | 0.00 | 1001.9 | ||
| 20260506001306 | 0 | 0.0 | 2.0 | 0.03 | 0.00 | 0.00 | 1001.9 | ||
| 20260506000237 | 0 | 2.0 | 4.0 | 0.03 | 0.00 | 0.00 | 1001.9 | ||
| 20260505235208 | 0 | 0.0 | 1.0 | 0.03 | 0.00 | 0.00 | 1002.8 | ||
| 20260505234140 | 0 | 2.0 | 3.0 | 0.03 | 0.00 | 0.00 | 1002.9 | ||
| 20260505233112 | 0 | 2.0 | 2.0 | 0.03 | 0.00 | 0.00 | 1003.4 | ||
| 20260505232048 | 0 | 0.0 | 2.0 | 0.03 | 0.00 | 0.00 | 1003.7 | ||
| 20260505231021 | 0 | 1.0 | 3.0 | 0.00 | 0.00 | 0.00 | 1003.6 | ||
| 20260505225952 | 0 | 0.0 | 3.0 | 0.00 | 0.00 | 0.00 | 1002.6 | ||
| 20260505224923 | 0 | 0.0 | 1.0 | 0.00 | 0.00 | 0.00 | 1003.1 | ||
| 20260505223855 | 0 | 0.0 | 3.0 | 0.00 | 0.00 | 0.00 | 1002.6 | ||
| 20260505222826 | 0 | 0.0 | 1.0 | 0.00 | 0.00 | 0.00 | 1003.1 | ||
| 20260505221758 | 0 | 0.0 | 1.0 | 0.00 | 0.00 | 0.00 | 1003.3 | ||
| 20260505220729 | 0 | 0.0 | 0.0 | 0.00 | 0.00 | 0.00 | 1003.8 | ||
| 20260505215557 | 0 | 0.0 | 0.0 | 0.00 | 0.00 | 0.00 | 1003.9 | ||
| 20260505214528 | 0 | 0.0 | 2.0 | 0.00 | 0.00 | 0.00 | 1004.3 | ||
| 20260505213459 | 0 | 0.0 | 1.0 | 0.00 | 0.00 | 0.00 | 1004.4 | ||
| 20260505212430 | 0 | 1.0 | 2.0 | 0.00 | 0.00 | 0.00 | 1004.5 | ||
| 20260505211401 | 0 | 1.0 | 1.0 | 0.00 | 0.00 | 0.00 | 1004.5 | ||
| 20260505210330 | 0 | 0.0 | 0.0 | 0.00 | 0.00 | 0.00 | 1004.6 | ||
| 20260505204342 | 0 | 0.0 | 0.0 | 0.00 | 0.00 | 0.00 | 1004.6 | ||
| 20260505203313 | 0 | 0.0 | 0.0 | 0.00 | 0.00 | 0.00 | 1004.8 | ||
| 20260505201524 | 0 | 0.0 | 1.0 | 0.00 | 0.00 | 0.00 | 1004.6 | ||
| 20260505200455 | 0 | 0.0 | 0.0 | 0.00 | 0.00 | 0.00 | 1004.6 | ||
| 20260505193740 | 0 | 0.0 | 1.0 | 0.00 | 0.00 | 0.00 | 1004.5 | ||
| 20260505192608 | 0 | 0.0 | 0.0 | 0.00 | 0.00 | 0.00 | 1004.3 | ||
| 20260505191539 | 0 | 0.0 | 0.0 | 0.00 | 0.00 | 0.00 | 1004.2 | ||
| 20260505183653 | 0 | 0.0 | 0.0 | 0.00 | 0.00 | 0.00 | 1004.0 | ||
| 20260505181859 | 0 | 0.0 | 1.0 | 0.00 | 0.00 | 0.00 | 1003.9 | ||
| 20260505180830 | 0 | 0.0 | 0.0 | 0.00 | 0.00 | 0.00 | 1004.0 | ||
| 20260505175756 | 0 | 2.0 | 3.0 | 0.00 | 0.00 | 0.00 | 1003.8 | ||
| 20260505174726 | 0 | 0.0 | 3.0 | 0.00 | 0.00 | 0.00 | 1004.1 | ||
| 20260505173656 | 0 | 1.0 | 3.0 | 0.00 | 0.00 | 0.00 | 1004.2 | ||
| 20260505172627 | 0 | 0.0 | 2.0 | 0.00 | 0.00 | 0.00 | 1004.3 | ||
| 20260505171557 | 0 | 0.0 | 2.0 | 0.00 | 0.00 | 0.00 | 1004.3 | ||
| 20260505170528 | 0 | 0.0 | 4.0 | 0.00 | 0.00 | 0.00 | 1004.4 | ||
| 20260505165456 | 0 | 2.0 | 4.0 | 0.00 | 0.00 | 0.00 | 1004.4 | ||
| 20260505164427 | 0 | 1.0 | 4.0 | 0.00 | 0.00 | 0.00 | 1004.4 | ||
| 20260505163357 | 0 | 0.0 | 3.0 | 0.00 | 0.00 | 0.00 | 1004.5 | ||
| 20260505162327 | 0 | 1.0 | 3.0 | 0.00 | 0.00 | 0.00 | 1004.4 | ||
| 20260505161257 | 0 | 0.0 | 1.0 | 0.00 | 0.00 | 0.00 | 1004.2 | ||
| 20260505160226 | 0 | 1.0 | 3.0 | 0.00 | 0.00 | 0.00 | 1004.4 | ||
| 20260505153055 | 0 | 3.0 | 4.0 | 0.00 | 0.00 | 0.00 | 1004.5 | ||
| 20260505152023 | 0 | 1.0 | 1.0 | 0.00 | 0.00 | 0.00 | 1004.5 | ||
| 20260505150952 | 0 | 0.0 | 3.0 | 0.00 | 0.00 | 0.00 | 1004.4 | ||
| 20260505125009 | 0 | 2.0 | 3.0 | 0.00 | 0.00 | 0.00 | 1005.0 | ||
| 20260505123936 | 0 | 0.0 | 1.0 | 0.00 | 0.00 | 0.00 | 1005.0 | ||
| 20260505122907 | 0 | 0.0 | 3.0 | 0.00 | 0.00 | 0.00 | 1005.0 | ||
| 20260505121837 | 0 | 2.0 | 2.0 | 0.00 | 0.00 | 0.00 | 1004.9 | ||
| 20260505120807 | 0 | 1.0 | 3.0 | 0.00 | 0.00 | 0.00 | 1004.8 | ||
| 20260505115736 | 0 | 0.0 | 2.0 | 0.00 | 0.00 | 0.00 | 1005.0 | ||
| 20260505114707 | 0 | 1.0 | 1.0 | 0.00 | 0.00 | 0.00 | 1004.9 | ||
| 20260505113637 | 0 | 2.0 | 2.0 | 0.00 | 0.00 | 0.00 | 1004.9 | ||
| 20260505112607 | 0 | 0.0 | 1.0 | 0.00 | 0.00 | 0.00 | 1004.9 | ||
| 20260505111538 | 0 | 0.0 | 0.0 | 0.00 | 0.00 | 0.00 | 1005.1 | ||
| 20260505110507 | 0 | 1.0 | 2.0 | 0.00 | 0.00 | 0.00 | 1005.0 | ||
| 20260505101848 | 0 | 0.0 | 0.0 | 0.00 | 0.00 | 0.00 | 1004.9 | ||
| 20260505100818 | 0 | 0.0 | 0.0 | 0.00 | 0.00 | 0.00 | 1005.0 | ||
| 20260505094613 | 0 | 0.0 | 1.0 | 0.00 | 0.00 | 0.00 | 1005.0 | ||
| 20260505093545 | 0 | 1.0 | 2.0 | 0.00 | 0.00 | 0.00 | 1004.9 | ||
| 20260505092310 | 0 | 0.0 | 0.0 | 0.00 | 0.00 | 0.00 | 1004.8 | ||
| 20260505090931 | 0 | 0.0 | 0.0 | 0.00 | 0.00 | 0.00 | 1004.8 | ||
| 20260505085901 | 0 | 0.0 | 0.0 | 0.00 | 0.00 | 0.00 | 1004.7 | ||
| 20260505084214 | 0 | 0.0 | 1.0 | 0.00 | 0.00 | 0.00 | 1004.6 | ||
| 20260505083142 | 0 | 0.0 | 0.0 | 0.00 | 0.00 | 0.00 | 1004.5 | ||
| 20260505081703 | 0 | 1.0 | 1.0 | 0.00 | 0.00 | 0.00 | 1004.4 | ||
| 20260505080630 | 0 | 0.0 | 0.0 | 0.00 | 0.00 | 0.00 | 1004.4 | ||
| 20260505075600 | 0 | 0.0 | 0.0 | 0.00 | 0.00 | 0.00 | 1004.5 | ||
| 20260505074429 | 0 | 2.0 | 3.0 | 0.00 | 0.00 | 0.00 | 1004.3 | ||
| 20260505073359 | 0 | 0.0 | 5.0 | 0.00 | 0.00 | 0.00 | 1004.6 | ||
| 20260505072327 | 0 | 2.0 | 4.0 | 0.00 | 0.00 | 0.00 | 1004.5 | ||
| 20260505071249 | 0 | 0.0 | 1.0 | 0.00 | 0.00 | 0.00 | 1004.0 | ||
| 20260505070117 | 0 | 0.0 | 3.0 | 0.00 | 0.00 | 0.00 | 1003.9 | ||
| 20260505065047 | 0 | 0.0 | 1.0 | 0.00 | 0.00 | 0.00 | 1003.7 | ||
| 20260505063916 | 0 | 0.0 | 0.0 | 0.00 | 0.00 | 0.00 | 1003.6 | ||
| 20260505062641 | 0 | 0.0 | 0.0 | 0.00 | 0.00 | 0.00 | 1003.5 | ||
| 20260505061509 | 0 | 0.0 | 0.0 | 0.00 | 0.00 | 0.00 | 1003.5 | ||
| 20260505060132 | 0 | 0.0 | 0.0 | 0.00 | 0.00 | 0.00 | 1003.5 | ||
| 20260505054857 | 0 | 0.0 | 1.0 | 0.00 | 0.00 | 0.00 | 1003.4 | ||
| 20260505053828 | 0 | 0.0 | 0.0 | 0.00 | 0.00 | 0.00 | 1003.1 | ||
| 20260505051628 | 0 | 0.0 | 1.0 | 0.00 | 0.00 | 0.00 | 1003.0 |